Вернуться в каталог

STARLINK-31532

АктивенСвязьVLEO
NORAD 59349·PAYLOAD·🇺🇸 United States

Запущен Mar 31, 2024 с Cape Canaveral Space Force Station

Loading…

Ближайшие Пролёты (ближайшие 24 часа)

TLE

СвежийSource: CelesTrak SupGP

Эпоха: Sep 15, 2026, 01:58 UTC

1 59349C 24060B   26258.08243056  .00002204  00000+0  79842-4 0  2582
2 59349  42.9998 270.2736 0001362 264.6327 250.2984 15.27572999    19

Отслеживайте STARLINK-31532 в реальном времени с AllMySat

Download on the App Store